Regional Weather Roundup
Issued by NWS

Home | Current Version | Previous Version | Graphics & Text | Print | Product List | Glossary On
Versions: 1 2 3 4 5 6 7 8 9 10 11 12 13 14 15 16 17 18 19 20 21 22 23 24 25 26 27 28 29 30 31 32 33 34 35 36 37 38 39 40 41 42 43 44 45 46 47 48 49 50
648
ASUS43 KMKX 201811
RWRWI

WISCONSIN REGIONAL WEATHER ROUNDUP
NATIONAL WEATHER SERVICE MILWAUKEE/SULLIVAN WI
100 PM CDT FRI OCT 20 2017

NOTE: "FAIR" INDICATES FEW OR NO CLOUDS BELOW 12,000 FEET WITH NO
SIGNIFICANT WEATHER AND/OR OBSTRUCTIONS TO VISIBILITY.

WIZ001-002-006>008-014>016-023>028-201900-
NORTHWEST WISCONSIN

CITY           SKY/WX    TMP DP  RH WIND       PRES   REMARKS
SUPERIOR ARPT  SUNNY     74  51  44 S12G20    29.79F
6HR MIN TEMP:  37; 6HR MAX TEMP:  74;

ASHLAND        SUNNY     76  49  38 SW14      29.83F
6HR MIN TEMP:  48; 6HR MAX TEMP:  76;

HAYWARD        SUNNY     71  49  45 S18       29.87F
6HR MIN TEMP:  50; 6HR MAX TEMP:  71;

SIREN          SUNNY     75  48  38 SW13G20   29.83F
6HR MIN TEMP:  55; 6HR MAX TEMP:  75;

CUMBERLAND     SUNNY     70  46  43 S16G22    29.87F
RICE LAKE      SUNNY     72  49  44 S15       29.90F
6HR MIN TEMP:  47; 6HR MAX TEMP:  72;

CHETEK         SUNNY     72  51  48 S13G21    29.90F
6HR MIN TEMP:  46; 6HR MAX TEMP:  72;

LADYSMITH      SUNNY     72  51  48 S12G18    29.93F
6HR MIN TEMP:  50; 6HR MAX TEMP:  72;

EAU CLAIRE     SUNNY     74  50  42 S14       29.91F
6HR MIN TEMP:  48; 6HR MAX TEMP:  74;

MENOMONIE      SUNNY     73  51  45 S14G20    29.90F
6HR MIN TEMP:  47; 6HR MAX TEMP:  73;

NEW RICHMOND   SUNNY     73  48  40 S13G21    29.85F
OSCEOLA        SUNNY     74  50  43 S17G23    29.86F
6HR MIN TEMP:  51; 6HR MAX TEMP:  74;

$$

WIZ003>005-009-010-017-018-201900-
NORTH CENTRAL WISCONSIN

CITY           SKY/WX    TMP DP  RH WIND       PRES   REMARKS
MANITOWISH WTR SUNNY     73  50  45 S13       29.91F
6HR MIN TEMP:  42; 6HR MAX TEMP:  73;

ARBOR VITAE    SUNNY     74  50  42 S13G20    29.93F
WOODRUFF       SUNNY     74  50  42 S13G20    29.93F
RHINELANDER    SUNNY     73  48  41 S15G22    29.96F
6HR MIN TEMP:  53; 6HR MAX TEMP:  73;

EAGLE RIVER    SUNNY     73  42  32 SW7       29.94F
6HR MIN TEMP:  43; 6HR MAX TEMP:  73;

LAND O LAKES   SUNNY     74  43  32 S14G20    29.94F
6HR MIN TEMP:  47; 6HR MAX TEMP:  74;

PHILLIPS       SUNNY     72  49  44 SW12G17   29.92F
6HR MIN TEMP:  50; 6HR MAX TEMP:  72;

TOMAHAWK       SUNNY     73  47  38 S6        29.96F
6HR MIN TEMP:  37; 6HR MAX TEMP:  73;

MEDFORD        SUNNY     69  50  49 S10G17    29.97S
6HR MIN TEMP:  43; 6HR MAX TEMP:  70;

MERRILL        SUNNY     73  51  44 SW10      29.98F
6HR MIN TEMP:  37; 6HR MAX TEMP:  73;

$$

WIZ029-030-035-036-043>047-201900-
CENTRAL WISCONSIN

CITY           SKY/WX    TMP DP  RH WIND       PRES   REMARKS
WAUSAU         SUNNY     71  51  49 S9        29.97F
6HR MIN TEMP:  46; 6HR MAX TEMP:  71;

MOSINEE        MOSUNNY   70  54  56 S12       30.00F
MARSHFIELD     SUNNY     73  50  44 S12G20    29.97F
6HR MIN TEMP:  46; 6HR MAX TEMP:  73;

STEVENS POINT  SUNNY     71  50  46 S13       30.01F
6HR MIN TEMP:  46; 6HR MAX TEMP:  71;

WAUPACA        SUNNY     75  51  43 S7        30.01F
6HR MIN TEMP:  43; 6HR MAX TEMP:  75;

WAUTOMA        SUNNY     73  51  46 S12       30.02F
6HR MIN TEMP:  37; 6HR MAX TEMP:  73;

WISC RAPIDS    SUNNY     73  51  46 SW14      30.01F
6HR MIN TEMP:  50; 6HR MAX TEMP:  74;

CAMP DOUGLAS   MOSUNNY   73  52  46 S9        29.99F
$$

WIZ011>013-019>022-031-037>040-048>050-201900-
NORTHEAST WISCONSIN

CITY           SKY/WX    TMP DP  RH WIND       PRES   REMARKS
ANTIGO         SUNNY     70  51  50 SW13      30.00F
6HR MIN TEMP:  42; 6HR MAX TEMP:  70;

SHAWANO        SUNNY     74  52  45 S7        30.00F
6HR MIN TEMP:  49; 6HR MAX TEMP:  74;

OCONTO         SUNNY     71  53  52 S12       30.00F
6HR MIN TEMP:  50; 6HR MAX TEMP:  71;

STURGEON BAY   SUNNY     73  55  53 S10       30.01
6HR MIN TEMP:  52; 6HR MAX TEMP:  73;

GREEN BAY      SUNNY     71  54  54 S14       30.02F
6HR MIN TEMP:  51; 6HR MAX TEMP:  71;

MANITOWOC      SUNNY     69  54  58 S13       30.04F
6HR MIN TEMP:  47; 6HR MAX TEMP:  70;

APPLETON       MOSUNNY   72  46  40 S14       30.02F
CLINTONVILLE   SUNNY     73  52  46 S10       30.01
OSHKOSH        SUNNY     72  52  49 S14       30.03F
6HR MIN TEMP:  52; 6HR MAX TEMP:  73;

$$

WIZ032>034-041-042-053>061-201900-
SOUTHWEST WISCONSIN

CITY           SKY/WX    TMP DP  RH WIND       PRES   REMARKS
LA CROSSE      SUNNY     73  54  51 S16       29.95F
6HR MIN TEMP:  56; 6HR MAX TEMP:  73;

SPARTA         SUNNY     74  51  44 S9        29.98F
6HR MIN TEMP:  49; 6HR MAX TEMP:  74;

VIROQUA        SUNNY     71  53  53 S8        30.01F
6HR MIN TEMP:  53; 6HR MAX TEMP:  71;

BOSCOBEL       SUNNY     75  53  46 S8        30.02F
6HR MIN TEMP:  42; 6HR MAX TEMP:  75;

PRAIRIE DU CHI SUNNY     72  51  47 SE8       30.00F
6HR MIN TEMP:  53; 6HR MAX TEMP:  73;

PLATTEVILLE    SUNNY     71  55  55 S12       30.05F
6HR MIN TEMP:  52; 6HR MAX TEMP:  71;

$$

WIZ056-057-062-063-064-067-068-201900-
SOUTH CENTRAL WISCONSIN

CITY           SKY/WX    TMP DP  RH WIND       PRES   REMARKS
REEDSBURG      SUNNY     73  52  48 S8        30.02F
6HR MIN TEMP:  53; 6HR MAX TEMP:  73;

BARABOO/DELLS  SUNNY     71  49  46 SW12      30.03F
6HR MIN TEMP:  49; 6HR MAX TEMP:  71;

LONE ROCK      SUNNY     73  54  51 S12       30.03F
6HR MIN TEMP:  45; 6HR MAX TEMP:  73;

MINERAL POINT  SUNNY     72  55  56 S10       30.05F
MADISON        PTSUNNY   72  50  45 S10       30.05F
6HR MIN TEMP:  51; 6HR MAX TEMP:  73;

MIDDLETON      SUNNY     75  48  38 SW12      30.06F
6HR MIN TEMP:  51; 6HR MAX TEMP:  75;

WATERTOWN      SUNNY     73  49  43 S16       30.06F
6HR MIN TEMP:  47; 6HR MAX TEMP:  73;

MONROE         SUNNY     72  46  40 S13G20    30.07F
JANESVILLE     SUNNY     77  48  36 S10G16    30.08F
$$

WIZ051-052-058>065-066-070>072-201900-
SOUTHEAST WISCONSIN

CITY           SKY/WX    TMP DP  RH WIND       PRES   REMARKS
MILWAUKEE      MOSUNNY   76  52  43 SW15      30.08F
6HR MIN TEMP:  52; 6HR MAX TEMP:  76;

WAUKESHA       SUNNY     72  48  43 SW15G21   30.10F
MILWAUKEE/TIMM SUNNY     75  46  35 SW12      30.08F
RACINE         SUNNY     76  52  43 S9        30.10F
6HR MIN TEMP:  51; 6HR MAX TEMP:  76;

BURLINGTON     SUNNY     77  52  41 SW14      30.09F
6HR MIN TEMP:  42; 6HR MAX TEMP:  77;

KENOSHA        SUNNY     75  52  44 SW13      30.10F
6HR MIN TEMP:  48; 6HR MAX TEMP:  76;

FOND DU LAC    SUNNY     73  49  42 S12G18    30.04F
6HR MIN TEMP:  56; 6HR MAX TEMP:  73;

SHEBOYGAN      SUNNY     76  47  35 S17       30.05F
6HR MIN TEMP:  44; 6HR MAX TEMP:  76;

WEST BEND      SUNNY     73  45  35 SW14      30.06F
JUNEAU         SUNNY     72  50  46 S13       30.07F
6HR MIN TEMP:  51; 6HR MAX TEMP:  72;

$$

LSZ147-162-201900-
LAKE SUPERIOR

STATION/POSITION TIME  TEMP    WIND        PRES    WAVE
                       AIR SEA DIR/SP/G            HT/PER
                 (UTC) (F)     (DEG/KT/KT) (MB)    (FT/S)
W MID LAKE BUOY  1750   56 53              1010.4F   1
DEVILS ISLAND    1800   67     190/  3/  5 1009.4F
PORT WING        1640          180/  9/ 15 1010.2F
SAXON HARBOR     1740   77     200/ 14/ 20 1009.8F
$$

LMZ867-665-643>646-201900-
LAKE MICHIGAN

STATION/POSITION TIME  TEMP    WIND        PRES    WAVE
                       AIR SEA DIR/SP/G            HT/PER
                 (UTC) (F)     (DEG/KT/KT) (MB)    (FT/S)
S GREEN BAY BUOY 1730   62 58  220/ 12/ 16 1016.3F
N MID LAKE BUOY  1750   60 58  190/ 16/ 19 1017.0F   4/ 6
NORTHPORT PIER   174



USA.gov is the U.S. government's official web portal to all federal, state and local government web resources and services.